Weather History for Miles City, MT

Change the Weather History Date:

Friday, July 5, 2013

  Actual Average Record
Temperature  
Mean Temperature 77 °F 72 °F  
Max Temperature 89 °F 86 °F 109 °F (1937)
Min Temperature 64 °F 58 °F 48 °F (1945)
Degree Days  
Heating Degree Days 0 1  
Month to date heating degree days 0 5  
Since 1 June heating degree days 59 94  
Since 1 July heating degree days 0 5  
Cooling Degree Days 12 8  
Month to date cooling degree days 67 36  
Year to date cooling degree days 173 163  
Since 1 June cooling degree days 160 143  
Growing Degree Days 26 (Base 50)    
Moisture  
Dew Point 57 °F    
Average Humidity 52    
Maximum Humidity 68    
Minimum Humidity 36    
Precipitation  
Precipitation 0.00 in 0.05 in 1.31 in (1992)
Month to date precipitation 0.03 0.29  
Year to date precipitation 11.06 7.50  
Sea Level Pressure  
Sea Level Pressure 29.69 in    
Wind  
Wind Speed 9 mph (South)    
Max Wind Speed 23 mph    
Max Gust Speed 30 mph    
Visibility 10 miles    
Events      
T = Trace of Precipitation, MM = Missing Value Source: NWS Daily Summary

Daily Weather History Graph

Daily Weather History Graph

Search for Another Location

Airport:

Trip Planner

Search our weather history database for the weather conditions in past years. The results will help you decide how hot, cold, wet, or windy it might be!

Date:

Astronomy

Jul. 05, 2013 Rise Set
Actual Time 5:17 AM MDT 8:58 PM MDT
Civil Twilight 4:39 AM MDT 9:36 PM MDT
Nautical Twilight 3:47 AM MDT 10:28 PM MDT
Astronomical Twilight 2:36 AM MDT 11:38 PM MDT
Moon 3:22 AM MDT (7/5) 6:52 PM MDT (7/5)
Length of Visible Light 16h 57m
Length of Day
15h 40m
Waning Crescent, 6% of the Moon is Illuminated
Jul 5
Waning Crescent
Jul 8
New
Jul 15
First Quarter
Jul 22
Full
Jul 29
Last Quarter

Hourly Weather History & Observations

Time (MDT) Temp. Heat Index Dew Point Humidity Pressure Visibility Wind Dir Wind Speed Gust Speed Precip Events Conditions
12:53 AM 75.9 °F - 59.0 °F 56% 29.70 in 10.0 mi SE 10.4 mph - N/A   Clear
1:53 AM 73.0 °F - 57.9 °F 59% 29.70 in 10.0 mi SSW 6.9 mph - N/A   Clear
2:53 AM 72.0 °F - 55.9 °F 57% 29.70 in 10.0 mi South 9.2 mph - N/A   Clear
3:53 AM 68.0 °F - 55.0 °F 63% 29.70 in 10.0 mi South 8.1 mph - N/A   Clear
4:53 AM 68.0 °F - 55.0 °F 63% 29.68 in 10.0 mi SSW 6.9 mph - N/A   Clear
5:53 AM 66.0 °F - 55.9 °F 70% 29.69 in 10.0 mi SE 4.6 mph - N/A   Clear
6:53 AM 70.0 °F - 55.9 °F 61% 29.68 in 10.0 mi SSE 5.8 mph - N/A   Clear
7:53 AM 72.0 °F - 57.0 °F 59% 29.68 in 10.0 mi SSE 9.2 mph - N/A   Clear
8:53 AM 77.0 °F - 57.9 °F 52% 29.69 in 10.0 mi SE 8.1 mph - N/A   Clear
9:53 AM 80.1 °F 80.7 °F 59.0 °F 48% 29.68 in 10.0 mi South 8.1 mph - N/A   Clear
10:53 AM 82.0 °F 82.1 °F 59.0 °F 45% 29.68 in 10.0 mi SE 9.2 mph - N/A   Clear
11:53 AM 82.9 °F 82.8 °F 59.0 °F 44% 29.69 in 10.0 mi SSE 11.5 mph - N/A   Clear
12:53 PM 87.1 °F 86.1 °F 57.9 °F 37% 29.69 in 10.0 mi West 9.2 mph 17.3 mph N/A   Clear
1:53 PM 87.1 °F 87.0 °F 61.0 °F 41% 29.68 in 10.0 mi West 21.9 mph 29.9 mph N/A   Scattered Clouds
2:53 PM 87.1 °F 86.7 °F 60.1 °F 40% 29.70 in 10.0 mi NNW 19.6 mph 29.9 mph N/A   Partly Cloudy
3:53 PM 84.9 °F 84.8 °F 60.1 °F 43% 29.71 in 10.0 mi NW 18.4 mph 25.3 mph N/A   Clear
4:53 PM 84.0 °F 83.3 °F 57.0 °F 40% 29.70 in 10.0 mi NNW 17.3 mph 24.2 mph N/A   Clear
5:53 PM 79.0 °F - 53.1 °F 40% 29.70 in 10.0 mi WNW 11.5 mph - N/A   Clear
6:53 PM 81.0 °F 80.5 °F 54.0 °F 39% 29.68 in 10.0 mi Variable 3.5 mph - N/A   Clear
7:53 PM 79.0 °F - 55.0 °F 44% 29.68 in 10.0 mi SSW 4.6 mph - N/A   Clear
8:53 PM 73.9 °F - 57.0 °F 55% 29.70 in 10.0 mi Calm Calm - N/A   Clear
9:53 PM 73.0 °F - 57.9 °F 59% 29.71 in 10.0 mi NE 4.6 mph - N/A   Clear
10:53 PM 70.0 °F - 57.9 °F 65% 29.72 in 10.0 mi NNE 4.6 mph - N/A   Clear
11:53 PM 69.1 °F - 57.9 °F 68% 29.72 in 10.0 mi Calm Calm - N/A   Clear